![]() |
EMODnet Physics ERDDAP
Easier access to scientific data |
log in|
Brought to you by EMODnet Physics |
| Dataset Title: | NDBC - Collection of dew point temperature (DEWT) TimeSeries - IN SITU MultiPointTimeSeriesObservation
|
| Institution: | NDBC (Dataset ID: TS_DEWT_NDBC) |
| Information: | Summary
| License
| FGDC
| ISO 19115
| Metadata
| Background
| Subset
| Data Access Form
| Make a graph
|
| Name | Last modified | Size | Description | |
|---|---|---|---|---|
| Parent Directory | - | - | ||
| 41064_TS_DEWT_012016.nc | 05-Oct-2024 20:53 | 587172 | ||
| 41064_TS_DEWT_012017.nc | 05-Oct-2024 21:24 | 587036 | ||
| 41064_TS_DEWT_012018.nc | 05-Oct-2024 21:48 | 587298 | ||
| 41064_TS_DEWT_012019.nc | 05-Oct-2024 22:13 | 587096 | ||
| 41064_TS_DEWT_012020.nc | 05-Oct-2024 22:50 | 586871 | ||
| 41064_TS_DEWT_012021.nc | 05-Oct-2024 23:26 | 438798 | ||
| 41064_TS_DEWT_012022.nc | 05-Oct-2024 23:44 | 434685 | ||
| 41064_TS_DEWT_012023.nc | 06-Oct-2024 00:04 | 438580 | ||
| 41064_TS_DEWT_012025.nc | 07-Feb-2025 11:32 | 587125 | ||
| 41064_TS_DEWT_012026.nc | 02-Feb-2026 19:40 | 587164 | ||
| 41064_TS_DEWT_022016.nc | 05-Oct-2024 20:57 | 587300 | ||
| 41064_TS_DEWT_022017.nc | 05-Oct-2024 21:28 | 440011 | ||
| 41064_TS_DEWT_022018.nc | 05-Oct-2024 21:50 | 439872 | ||
| 41064_TS_DEWT_022019.nc | 05-Oct-2024 22:16 | 439952 | ||
| 41064_TS_DEWT_022020.nc | 05-Oct-2024 22:53 | 439982 | ||
| 41064_TS_DEWT_022021.nc | 05-Oct-2024 23:30 | 440199 | ||
| 41064_TS_DEWT_022022.nc | 05-Oct-2024 23:45 | 439984 | ||
| 41064_TS_DEWT_022025.nc | 01-Mar-2025 08:35 | 423358 | ||
| 41064_TS_DEWT_022026.nc | 01-Mar-2026 10:47 | 587148 | ||
| 41064_TS_DEWT_032017.nc | 05-Oct-2024 21:31 | 440277 | ||
| 41064_TS_DEWT_032018.nc | 05-Oct-2024 21:52 | 440406 | ||
| 41064_TS_DEWT_032019.nc | 05-Oct-2024 22:19 | 435907 | ||
| 41064_TS_DEWT_032020.nc | 05-Oct-2024 22:57 | 587175 | ||
| 41064_TS_DEWT_032021.nc | 05-Oct-2024 23:33 | 587160 | ||
| 41064_TS_DEWT_032022.nc | 05-Oct-2024 23:46 | 587324 | ||
| 41064_TS_DEWT_032023.nc | 06-Oct-2024 00:07 | 438419 | ||
| 41064_TS_DEWT_032025.nc | 02-Apr-2025 06:50 | 439990 | ||
| 41064_TS_DEWT_032026.nc | 23-Mar-2026 11:36 | 438089 | ||
| 41064_TS_DEWT_042017.nc | 05-Oct-2024 21:34 | 434917 | ||
| 41064_TS_DEWT_042018.nc | 05-Oct-2024 21:55 | 438419 | ||
| 41064_TS_DEWT_042019.nc | 05-Oct-2024 22:21 | 440159 | ||
| 41064_TS_DEWT_042020.nc | 05-Oct-2024 22:59 | 439092 | ||
| 41064_TS_DEWT_042022.nc | 05-Oct-2024 23:49 | 440246 | ||
| 41064_TS_DEWT_042023.nc | 06-Oct-2024 00:08 | 440197 | ||
| 41064_TS_DEWT_042025.nc | 01-May-2025 04:31 | 587197 | ||
| 41064_TS_DEWT_052016.nc | 05-Oct-2024 21:00 | 440133 | ||
| 41064_TS_DEWT_052017.nc | 05-Oct-2024 21:35 | 439571 | ||
| 41064_TS_DEWT_052018.nc | 05-Oct-2024 21:57 | 587254 | ||
| 41064_TS_DEWT_052019.nc | 05-Oct-2024 22:23 | 587061 | ||
| 41064_TS_DEWT_052020.nc | 05-Oct-2024 23:01 | 587319 | ||
| 41064_TS_DEWT_052022.nc | 05-Oct-2024 23:52 | 587253 | ||
| 41064_TS_DEWT_052023.nc | 06-Oct-2024 00:08 | 587170 | ||
| 41064_TS_DEWT_052025.nc | 03-Jun-2025 04:04 | 418875 | ||
| 41064_TS_DEWT_062015.nc | 05-Oct-2024 20:39 | 438876 | ||
| 41064_TS_DEWT_062016.nc | 05-Oct-2024 21:02 | 587339 | ||
| 41064_TS_DEWT_062018.nc | 05-Oct-2024 21:58 | 419955 | ||
| 41064_TS_DEWT_062019.nc | 05-Oct-2024 22:27 | 438472 | ||
| 41064_TS_DEWT_062020.nc | 05-Oct-2024 23:04 | 587176 | ||
| 41064_TS_DEWT_062021.nc | 05-Oct-2024 23:35 | 440110 | ||
| 41064_TS_DEWT_062022.nc | 05-Oct-2024 23:56 | 587295 | ||
| 41064_TS_DEWT_062023.nc | 06-Oct-2024 00:10 | 587294 | ||
| 41064_TS_DEWT_062025.nc | 01-Jul-2025 04:50 | 440241 | ||
| 41064_TS_DEWT_072015.nc | 05-Oct-2024 20:41 | 430347 | ||
| 41064_TS_DEWT_072016.nc | 05-Oct-2024 21:06 | 587285 | ||
| 41064_TS_DEWT_072017.nc | 05-Oct-2024 21:38 | 428929 | ||
| 41064_TS_DEWT_072018.nc | 05-Oct-2024 22:00 | 440043 | ||
| 41064_TS_DEWT_072019.nc | 05-Oct-2024 22:30 | 440233 | ||
| 41064_TS_DEWT_072020.nc | 05-Oct-2024 23:06 | 440240 | ||
| 41064_TS_DEWT_072021.nc | 05-Oct-2024 23:37 | 434733 | ||
| 41064_TS_DEWT_072022.nc | 05-Oct-2024 23:58 | 587329 | ||
| 41064_TS_DEWT_072023.nc | 06-Oct-2024 00:13 | 587319 | ||
| 41064_TS_DEWT_072025.nc | 01-Aug-2025 04:57 | 429845 | ||
| 41064_TS_DEWT_082015.nc | 05-Oct-2024 20:43 | 1625194 | ||
| 41064_TS_DEWT_082016.nc | 05-Oct-2024 21:09 | 1624373 | ||
| 41064_TS_DEWT_082017.nc | 05-Oct-2024 21:40 | 1626725 | ||
| 41064_TS_DEWT_082018.nc | 05-Oct-2024 22:01 | 1625869 | ||
| 41064_TS_DEWT_082019.nc | 05-Oct-2024 22:33 | 1626035 | ||
| 41064_TS_DEWT_082020.nc | 05-Oct-2024 23:08 | 1626696 | ||
| 41064_TS_DEWT_082021.nc | 05-Oct-2024 23:39 | 1626659 | ||
| 41064_TS_DEWT_082022.nc | 05-Oct-2024 23:59 | 1626545 | ||
| 41064_TS_DEWT_082023.nc | 06-Oct-2024 00:15 | 1626591 | ||
| 41064_TS_DEWT_082025.nc | 01-Sep-2025 04:49 | 1624878 | ||
| 41064_TS_DEWT_092015.nc | 05-Oct-2024 20:46 | 1626725 | ||
| 41064_TS_DEWT_092016.nc | 05-Oct-2024 21:13 | 1626567 | ||
| 41064_TS_DEWT_092017.nc | 05-Oct-2024 21:41 | 1625342 | ||
| 41064_TS_DEWT_092018.nc | 05-Oct-2024 22:03 | 1626690 | ||
| 41064_TS_DEWT_092019.nc | 05-Oct-2024 22:36 | 1626790 | ||
| 41064_TS_DEWT_092020.nc | 05-Oct-2024 23:12 | 1626942 | ||
| 41064_TS_DEWT_092021.nc | 05-Oct-2024 23:40 | 1626947 | ||
| 41064_TS_DEWT_092022.nc | 06-Oct-2024 00:00 | 601116 | ||
| 41064_TS_DEWT_092023.nc | 06-Oct-2024 00:17 | 1465171 | ||
| 41064_TS_DEWT_092025.nc | 02-Oct-2025 03:53 | 1472885 | ||
| 41064_TS_DEWT_102015.nc | 05-Oct-2024 20:47 | 1469916 | ||
| 41064_TS_DEWT_102016.nc | 05-Oct-2024 21:16 | 1468895 | ||
| 41064_TS_DEWT_102017.nc | 05-Oct-2024 21:43 | 1469874 | ||
| 41064_TS_DEWT_102018.nc | 05-Oct-2024 22:04 | 1473480 | ||
| 41064_TS_DEWT_102019.nc | 05-Oct-2024 22:39 | 1470011 | ||
| 41064_TS_DEWT_102020.nc | 05-Oct-2024 23:15 | 1469768 | ||
| 41064_TS_DEWT_102021.nc | 05-Oct-2024 23:41 | 1469913 | ||
| 41064_TS_DEWT_102022.nc | 06-Oct-2024 00:01 | 1472328 | ||
| 41064_TS_DEWT_102023.nc | 06-Oct-2024 00:19 | 1469041 | ||
| 41064_TS_DEWT_102025.nc | 01-Nov-2025 07:22 | 1469962 | ||
| 41064_TS_DEWT_112016.nc | 05-Oct-2024 21:19 | 1469793 | ||
| 41064_TS_DEWT_112017.nc | 05-Oct-2024 21:44 | 1473263 | ||
| 41064_TS_DEWT_112018.nc | 05-Oct-2024 22:07 | 1469663 | ||
| 41064_TS_DEWT_112019.nc | 05-Oct-2024 22:43 | 1469900 | ||
| 41064_TS_DEWT_112020.nc | 05-Oct-2024 23:19 | 1469414 | ||
| 41064_TS_DEWT_112021.nc | 05-Oct-2024 23:41 | 1161839 | ||
| 41064_TS_DEWT_112022.nc | 06-Oct-2024 00:02 | 1474223 | ||
| 41064_TS_DEWT_112023.nc | 06-Oct-2024 00:20 | 1477524 | ||
| 41064_TS_DEWT_112024.nc | 17-Jan-2025 15:05 | 1626768 | ||
| 41064_TS_DEWT_112025.nc | 01-Dec-2025 08:59 | 1477023 | ||
| 41064_TS_DEWT_122015.nc | 05-Oct-2024 20:50 | 1624395 | ||
| 41064_TS_DEWT_122016.nc | 05-Oct-2024 21:21 | 1626884 | ||
| 41064_TS_DEWT_122017.nc | 05-Oct-2024 21:45 | 1626602 | ||
| 41064_TS_DEWT_122018.nc | 05-Oct-2024 22:10 | 1626718 | ||
| 41064_TS_DEWT_122019.nc | 05-Oct-2024 22:46 | 1625118 | ||
| 41064_TS_DEWT_122020.nc | 05-Oct-2024 23:22 | 1625045 | ||
| 41064_TS_DEWT_122021.nc | 05-Oct-2024 23:42 | 1626033 | ||
| 41064_TS_DEWT_122022.nc | 06-Oct-2024 00:03 | 1626853 | ||
| 41064_TS_DEWT_122023.nc | 06-Oct-2024 00:23 | 1626624 | ||
| 41064_TS_DEWT_122024.nc | 22-Jan-2025 16:40 | 1626685 | ||
| 41064_TS_DEWT_122025.nc | 01-Jan-2026 08:44 | 1159277 | ||